Regional Weather Roundup
Issued by NWS

Home | Current Version | Previous Version | Text Only | Print | Product List | Glossary On
Versions: 1 2 3 4 5 6 7 8 9 10 11 12 13 14 15 16 17 18 19 20 21 22 23 24 25 26 27 28 29 30 31 32 33 34 35 36 37 38 39 40 41 42 43 44 45 46 47 48 49 50
000
ASUS44 KOUN 300510
RWROK

WEATHER ROUNDUP FOR OKLAHOMA
NATIONAL WEATHER SERVICE NORMAN OK
1200 AM CDT MON MAR 30 2015

NOTE: "FAIR" INDICATES FEW OR NO CLOUDS BELOW 12,000 FEET WITH NO
      SIGNIFICANT WEATHER AND/OR OBSTRUCTIONS TO VISIBILITY.

OKZ001>007-009>012-014-015-017-300600-
NORTHWEST OKLAHOMA AND THE PANHANDLE

CITY           SKY/WX    TMP DP  RH WIND       PRES   REMARKS
GAGE           PTCLDY    44  33  65 CALM      30.20S
GUYMON         MOCLDY    55  28  35 E6        30.22S
ENID/WOODRING  CLEAR     48  36  61 N7        30.17R
$$

OKZ016-021>023-033>039-044-045-300600-
SOUTHWEST OKLAHOMA

CITY           SKY/WX    TMP DP  RH WIND       PRES   REMARKS
LAWTON/REGL    CLEAR     59  41  51 N7        30.16R
LAWTON/FT SILL CLEAR     54  43  66 N8        30.15R
CLINTON        CLEAR     54  33  45 NE7       30.20S
HOBART         CLEAR     50  35  56 E5        30.18R
ALTUS AFB      CLEAR     51  40  65 NE9       30.17R
$$

OKZ018>020-024>031-300600-
CENTRAL OKLAHOMA

CITY           SKY/WX    TMP DP  RH WIND       PRES   REMARKS
OKLAHOMA CITY  PTCLDY    59  43  55 N3        30.17R
OKC/WILEY POST CLEAR     53  41  63 CALM      30.17R
OKC/TINKER AFB CLEAR     60  42  51 SE7       30.16R
STILLWATER     CLEAR     52  37  56 N12       30.16R
GUTHRIE        CLEAR     51  37  58 CALM      30.17R
$$

OKZ008-013-054>072-300600-
NORTHEAST OKLAHOMA

CITY           SKY/WX    TMP DP  RH WIND       PRES   REMARKS
TULSA          CLEAR     51  43  74 CALM      30.15R
TULSA/JONES    CLEAR     49  42  77 CALM      30.16R
PONCA CITY     CLEAR     45  35  68 NE6       30.17S
BARTLESVILLE   CLEAR     41  40  96 CALM      30.19R
MUSKOGEE       CLEAR     50  43  77 N3        30.16R
$$

OKZ032-040>043-046>053-073>077-300600-
SOUTH CENTRAL/SOUTHEAST OKLAHOMA

CITY           SKY/WX    TMP DP  RH WIND       PRES   REMARKS
ARDMORE/DWNTWN CLEAR     63  43  48 NE5       30.13R
MCALESTER      PTCLDY    54  44  69 CALM      30.14R
$$



USA.gov is the U.S. government's official web portal to all federal, state and local government web resources and services.